Date_UTC,IAGA,MLT,MLAT,IGRF_DECL,SZA,N,E,Z
2015-08-15 08:00:00,SKT,5.53,71.43,-29.61,86.71,21.8,16.2,3.3
2015-08-15 08:01:00,SKT,5.55,71.43,-29.61,86.62,23.7,15.5,2.9
2015-08-15 08:02:00,SKT,5.56,71.43,-29.61,86.53,24.1,14.7,1.8
2015-08-15 08:03:00,SKT,5.58,71.43,-29.61,86.44,26.0,15.1,-0.1
2015-08-15 08:04:00,SKT,5.60,71.43,-29.61,86.35,26.7,14.6,-0.2
2015-08-15 08:05:00,SKT,5.61,71.43,-29.61,86.25,26.1,13.6,0.7
2015-08-15 08:06:00,SKT,5.63,71.43,-29.61,86.16,24.8,13.2,1.5
2015-08-15 08:07:00,SKT,5.65,71.43,-29.61,86.07,24.8,13.0,0.4
2015-08-15 08:08:00,SKT,5.66,71.43,-29.61,85.97,24.4,13.0,0.9
2015-08-15 08:09:00,SKT,5.68,71.43,-29.61,85.88,24.2,12.5,2.9
2015-08-15 08:10:00,SKT,5.70,71.43,-29.61,85.79,23.8,12.6,5.5
2015-08-15 08:11:00,SKT,5.71,71.43,-29.61,85.69,21.5,12.7,8.4
2015-08-15 08:12:00,SKT,5.73,71.43,-29.61,85.60,19.4,13.5,9.4
2015-08-15 08:13:00,SKT,5.75,71.43,-29.61,85.50,19.4,15.1,7.9
2015-08-15 08:14:00,SKT,5.76,71.43,-29.61,85.41,21.4,16.5,5.4
2015-08-15 08:15:00,SKT,5.78,71.43,-29.61,85.31,22.3,17.8,4.7
2015-08-15 08:16:00,SKT,5.80,71.43,-29.61,85.22,20.9,18.2,5.2
2015-08-15 08:17:00,SKT,5.81,71.43,-29.61,85.12,20.1,18.8,4.3
2015-08-15 08:18:00,SKT,5.83,71.43,-29.61,85.03,21.1,19.7,1.9
2015-08-15 08:19:00,SKT,5.85,71.43,-29.61,84.93,23.0,21.2,1.0
2015-08-15 08:20:00,SKT,5.86,71.43,-29.61,84.84,24.6,22.2,3.3
2015-08-15 08:21:00,SKT,5.88,71.43,-29.61,84.74,23.5,22.0,7.9
2015-08-15 08:22:00,SKT,5.90,71.43,-29.61,84.65,20.1,21.3,11.9
2015-08-15 08:23:00,SKT,5.91,71.43,-29.61,84.55,16.0,20.6,11.1
2015-08-15 08:24:00,SKT,5.93,71.43,-29.61,84.45,16.3,20.5,4.5
2015-08-15 08:25:00,SKT,5.95,71.43,-29.61,84.36,20.7,22.9,-1.5
2015-08-15 08:26:00,SKT,5.97,71.43,-29.61,84.26,25.5,27.0,-1.9
2015-08-15 08:27:00,SKT,5.98,71.43,-29.61,84.17,28.1,27.8,1.0
2015-08-15 08:28:00,SKT,6.00,71.43,-29.61,84.07,27.7,26.8,4.6
2015-08-15 08:29:00,SKT,6.02,71.43,-29.61,83.97,10.8,30.8,17.5
2015-08-15 08:30:00,SKT,6.03,71.43,-29.61,83.87,50.4,52.3,-33.4
2015-08-15 08:31:00,SKT,6.05,71.43,-29.61,83.78,161.9,116.9,-70.0
2015-08-15 08:32:00,SKT,6.07,71.43,-29.61,83.68,147.8,123.8,11.5
2015-08-15 08:33:00,SKT,6.08,71.43,-29.61,83.58,100.2,77.9,32.1
2015-08-15 08:34:00,SKT,6.10,71.43,-29.61,83.49,101.5,73.2,-2.6
2015-08-15 08:35:00,SKT,6.12,71.43,-29.61,83.39,106.6,77.4,2.1
2015-08-15 08:36:00,SKT,6.13,71.43,-29.61,83.29,110.6,69.4,15.8
2015-08-15 08:37:00,SKT,6.15,71.43,-29.61,83.19,114.0,55.3,12.6
2015-08-15 08:38:00,SKT,6.17,71.43,-29.61,83.09,102.6,48.2,15.9
2015-08-15 08:39:00,SKT,6.18,71.43,-29.61,83.00,83.1,30.6,29.5
2015-08-15 08:40:00,SKT,6.20,71.43,-29.61,82.90,64.9,9.1,30.3
2015-08-15 08:41:00,SKT,6.22,71.43,-29.61,82.80,57.2,11.0,16.2
2015-08-15 08:42:00,SKT,6.23,71.43,-29.61,82.70,58.9,10.2,18.6
2015-08-15 08:43:00,SKT,6.25,71.43,-29.61,82.60,65.9,11.6,17.3
2015-08-15 08:44:00,SKT,6.27,71.43,-29.61,82.50,71.3,6.2,17.2
2015-08-15 08:45:00,SKT,6.28,71.43,-29.61,82.40,28.3,-0.0,49.3
2015-08-15 08:46:00,SKT,6.30,71.43,-29.61,82.30,18.9,-8.9,22.5
2015-08-15 08:47:00,SKT,6.32,71.43,-29.61,82.21,8.1,-8.2,29.6
2015-08-15 08:48:00,SKT,6.33,71.43,-29.61,82.11,-13.4,-9.0,43.9
2015-08-15 08:49:00,SKT,6.35,71.43,-29.61,82.01,-21.5,-11.6,41.0
2015-08-15 08:50:00,SKT,6.37,71.43,-29.61,81.91,-29.8,-8.1,45.0
2015-08-15 08:51:00,SKT,6.38,71.43,-29.61,81.81,-49.4,-5.4,49.0
2015-08-15 08:52:00,SKT,6.40,71.43,-29.61,81.71,-45.6,-11.4,26.1
2015-08-15 08:53:00,SKT,6.42,71.43,-29.61,81.61,-50.9,-12.8,18.9
2015-08-15 08:54:00,SKT,6.43,71.43,-29.61,81.51,-58.7,-17.3,26.5
2015-08-15 08:55:00,SKT,6.45,71.43,-29.61,81.41,-59.5,-13.9,25.9
2015-08-15 08:56:00,SKT,6.47,71.43,-29.61,81.31,-62.3,-13.2,42.8
2015-08-15 08:57:00,SKT,6.48,71.43,-29.61,81.21,-76.7,-10.3,43.8
2015-08-15 08:58:00,SKT,6.50,71.43,-29.61,81.11,-61.0,-14.7,17.8
2015-08-15 08:59:00,SKT,6.52,71.43,-29.61,81.01,-53.7,-8.1,26.0
2015-08-15 09:00:00,SKT,6.53,71.43,-29.61,80.91,-43.3,-7.4,27.4
2015-08-15 09:01:00,SKT,6.55,71.43,-29.61,80.80,-64.3,-6.7,46.4
2015-08-15 09:02:00,SKT,6.57,71.43,-29.61,80.70,-81.0,-8.4,44.6
2015-08-15 09:03:00,SKT,6.58,71.43,-29.61,80.60,-78.6,-10.5,21.9
2015-08-15 09:04:00,SKT,6.60,71.43,-29.61,80.50,-73.5,-18.5,21.8
2015-08-15 09:05:00,SKT,6.62,71.43,-29.61,80.40,-74.5,-23.8,25.7
2015-08-15 09:06:00,SKT,6.63,71.43,-29.61,80.30,-79.2,-28.1,40.6
2015-08-15 09:07:00,SKT,6.65,71.43,-29.61,80.20,-91.9,-28.3,58.0
2015-08-15 09:08:00,SKT,6.67,71.43,-29.61,80.10,-115.4,-20.7,60.5
2015-08-15 09:09:00,SKT,6.69,71.43,-29.61,80.00,-90.7,-19.9,12.7
2015-08-15 09:10:00,SKT,6.70,71.43,-29.61,79.89,-80.3,-11.5,19.6
2015-08-15 09:11:00,SKT,6.72,71.43,-29.61,79.79,-83.7,-15.5,9.1
2015-08-15 09:12:00,SKT,6.74,71.43,-29.61,79.69,-73.3,-17.6,-1.7
2015-08-15 09:13:00,SKT,6.75,71.43,-29.61,79.59,-59.8,-14.3,0.9
2015-08-15 09:14:00,SKT,6.77,71.43,-29.61,79.49,-54.3,-9.3,-0.2
2015-08-15 09:15:00,SKT,6.79,71.43,-29.61,79.38,-49.6,-3.3,-2.2
2015-08-15 09:16:00,SKT,6.80,71.43,-29.61,79.28,-42.3,-9.7,-4.3
2015-08-15 09:17:00,SKT,6.82,71.43,-29.61,79.18,-50.6,-15.8,-4.7
2015-08-15 09:18:00,SKT,6.84,71.43,-29.61,79.08,-39.4,-25.0,-23.4
2015-08-15 09:19:00,SKT,6.85,71.43,-29.61,78.98,-25.4,-26.1,-20.0
2015-08-15 09:20:00,SKT,6.87,71.43,-29.61,78.87,-47.5,-25.5,12.8
2015-08-15 09:21:00,SKT,6.89,71.43,-29.61,78.77,-49.3,-32.6,-2.9
2015-08-15 09:22:00,SKT,6.90,71.43,-29.61,78.67,-53.4,-29.7,13.6
2015-08-15 09:23:00,SKT,6.92,71.43,-29.61,78.57,-63.9,-41.9,11.8
2015-08-15 09:24:00,SKT,6.94,71.43,-29.61,78.46,-58.8,-35.1,36.3
2015-08-15 09:25:00,SKT,6.95,71.43,-29.61,78.36,-83.9,-30.7,52.1
2015-08-15 09:26:00,SKT,6.97,71.43,-29.61,78.26,-70.3,-8.1,57.4
2015-08-15 09:27:00,SKT,6.99,71.43,-29.61,78.16,-52.5,7.7,54.1
2015-08-15 09:28:00,SKT,7.00,71.43,-29.61,78.05,-70.5,19.1,73.6
2015-08-15 09:29:00,SKT,7.02,71.43,-29.61,77.95,-87.5,3.7,60.0
2015-08-15 09:30:00,SKT,7.04,71.43,-29.61,77.85,-107.0,-6.7,51.7
2015-08-15 09:31:00,SKT,7.05,71.43,-29.61,77.74,-79.4,-3.1,-9.7
2015-08-15 09:32:00,SKT,7.07,71.43,-29.61,77.64,-66.8,7.1,0.1
2015-08-15 09:33:00,SKT,7.09,71.43,-29.61,77.54,-79.6,-10.2,-8.4
2015-08-15 09:34:00,SKT,7.10,71.43,-29.61,77.43,-59.8,-7.0,-31.0
2015-08-15 09:35:00,SKT,7.12,71.43,-29.61,77.33,-60.9,-10.9,-17.3
2015-08-15 09:36:00,SKT,7.14,71.43,-29.61,77.23,-111.7,-25.2,1.0
2015-08-15 09:37:00,SKT,7.15,71.43,-29.61,77.13,-115.2,-46.8,-17.2
2015-08-15 09:38:00,SKT,7.17,71.43,-29.61,77.02,-127.1,-59.0,-12.5
2015-08-15 09:39:00,SKT,7.19,71.43,-29.61,76.92,-143.8,-68.8,-20.3
2015-08-15 09:40:00,SKT,7.21,71.43,-29.61,76.82,-142.6,-71.0,-14.1
2015-08-15 09:41:00,SKT,7.22,71.43,-29.61,76.71,-145.9,-69.7,-6.9
2015-08-15 09:42:00,SKT,7.24,71.43,-29.61,76.61,-147.7,-63.3,-11.3
2015-08-15 09:43:00,SKT,7.26,71.43,-29.61,76.50,-128.4,-63.7,-27.2
2015-08-15 09:44:00,SKT,7.27,71.43,-29.61,76.40,-120.8,-59.8,-22.8
2015-08-15 09:45:00,SKT,7.29,71.43,-29.61,76.30,-116.1,-62.6,-40.0
2015-08-15 09:46:00,SKT,7.31,71.43,-29.61,76.19,-122.1,-55.9,-26.3
2015-08-15 09:47:00,SKT,7.32,71.43,-29.61,76.09,-141.3,-54.9,-19.0
2015-08-15 09:48:00,SKT,7.34,71.43,-29.61,75.99,-151.2,-57.1,-16.9
2015-08-15 09:49:00,SKT,7.36,71.43,-29.61,75.88,-173.0,-75.3,-6.6
2015-08-15 09:50:00,SKT,7.37,71.43,-29.61,75.78,-157.0,-90.1,-27.9
2015-08-15 09:51:00,SKT,7.39,71.43,-29.61,75.68,-144.0,-88.5,-23.6
2015-08-15 09:52:00,SKT,7.41,71.43,-29.61,75.57,-152.1,-85.8,-28.3
2015-08-15 09:53:00,SKT,7.42,71.43,-29.61,75.47,-146.1,-77.5,-34.5
2015-08-15 09:54:00,SKT,7.44,71.43,-29.61,75.36,-150.7,-74.7,-43.4
2015-08-15 09:55:00,SKT,7.46,71.43,-29.61,75.26,-167.6,-68.1,-23.5
2015-08-15 09:56:00,SKT,7.47,71.43,-29.61,75.16,-186.9,-51.8,2.2
2015-08-15 09:57:00,SKT,7.49,71.43,-29.61,75.05,-193.9,-52.3,11.9
2015-08-15 09:58:00,SKT,7.51,71.43,-29.61,74.95,-193.0,-53.7,8.4
2015-08-15 09:59:00,SKT,7.52,71.43,-29.61,74.85,-172.0,-57.7,-18.7
2015-08-15 10:00:00,SKT,7.54,71.43,-29.61,74.74,-151.2,-35.7,-39.0
2015-08-15 10:01:00,SKT,7.56,71.43,-29.61,74.64,-168.9,-20.8,-32.1
2015-08-15 10:02:00,SKT,7.57,71.43,-29.61,74.53,-178.5,-33.8,-41.9
2015-08-15 10:03:00,SKT,7.59,71.43,-29.61,74.43,-191.8,-42.0,-24.5
2015-08-15 10:04:00,SKT,7.61,71.43,-29.61,74.33,-200.0,-65.2,-39.9
2015-08-15 10:05:00,SKT,7.62,71.43,-29.61,74.22,-190.5,-75.1,-41.3
2015-08-15 10:06:00,SKT,7.64,71.43,-29.61,74.12,-190.3,-73.4,-22.3
2015-08-15 10:07:00,SKT,7.66,71.43,-29.61,74.02,-185.2,-93.3,-54.2
2015-08-15 10:08:00,SKT,7.67,71.43,-29.61,73.91,-181.0,-81.4,-31.2
2015-08-15 10:09:00,SKT,7.69,71.43,-29.61,73.81,-175.7,-72.9,0.7
2015-08-15 10:10:00,SKT,7.71,71.43,-29.61,73.70,-195.5,-97.4,-22.5
2015-08-15 10:11:00,SKT,7.72,71.43,-29.61,73.60,-188.9,-97.7,-41.3
2015-08-15 10:12:00,SKT,7.74,71.43,-29.61,73.50,-191.2,-102.8,-5.9
2015-08-15 10:13:00,SKT,7.76,71.43,-29.61,73.39,-194.9,-121.3,-16.3
2015-08-15 10:14:00,SKT,7.77,71.43,-29.61,73.29,-184.3,-74.8,24.0
2015-08-15 10:15:00,SKT,7.79,71.43,-29.61,73.19,-208.3,-99.7,2.3
2015-08-15 10:16:00,SKT,7.81,71.43,-29.61,73.08,-179.6,-93.3,32.2
2015-08-15 10:17:00,SKT,7.82,71.43,-29.61,72.98,-185.5,-77.2,84.6
2015-08-15 10:18:00,SKT,7.84,71.43,-29.61,72.87,-197.9,-85.1,86.1
2015-08-15 10:19:00,SKT,7.86,71.43,-29.61,72.77,-180.8,-72.0,75.4
2015-08-15 10:20:00,SKT,7.87,71.43,-29.61,72.67,-174.0,-76.9,71.3
2015-08-15 10:21:00,SKT,7.89,71.43,-29.61,72.56,-182.5,-80.3,97.1
2015-08-15 10:22:00,SKT,7.91,71.43,-29.61,72.46,-202.1,-84.7,112.3
2015-08-15 10:23:00,SKT,7.92,71.43,-29.61,72.36,-192.1,-72.6,124.2
2015-08-15 10:24:00,SKT,7.94,71.43,-29.61,72.25,-192.4,-87.2,108.5
2015-08-15 10:25:00,SKT,7.96,71.43,-29.61,72.15,-187.6,-94.4,102.7
2015-08-15 10:26:00,SKT,7.97,71.43,-29.61,72.05,-179.8,-106.7,102.9
2015-08-15 10:27:00,SKT,7.99,71.43,-29.61,71.94,-173.3,-103.1,104.5
2015-08-15 10:28:00,SKT,8.01,71.43,-29.61,71.84,-190.0,-91.0,123.1
2015-08-15 10:29:00,SKT,8.02,71.43,-29.61,71.74,-202.8,-89.5,163.1
2015-08-15 10:30:00,SKT,8.04,71.43,-29.61,71.63,-202.5,-94.0,225.0
2015-08-15 10:31:00,SKT,8.06,71.43,-29.61,71.53,-176.5,-131.0,263.9
2015-08-15 10:32:00,SKT,8.07,71.43,-29.61,71.43,-208.0,-180.1,222.7
2015-08-15 10:33:00,SKT,8.09,71.43,-29.61,71.32,-244.9,-147.4,212.0
2015-08-15 10:34:00,SKT,8.11,71.43,-29.61,71.22,-243.2,-42.5,248.5
2015-08-15 10:35:00,SKT,8.12,71.43,-29.61,71.12,-190.6,18.0,229.3
2015-08-15 10:36:00,SKT,8.14,71.43,-29.61,71.02,-157.4,56.9,197.2
2015-08-15 10:37:00,SKT,8.15,71.43,-29.61,70.91,-143.1,26.6,145.7
2015-08-15 10:38:00,SKT,8.17,71.43,-29.61,70.81,-119.2,-0.0,135.6
2015-08-15 10:39:00,SKT,8.19,71.43,-29.61,70.71,-105.0,4.9,162.7
2015-08-15 10:40:00,SKT,8.20,71.43,-29.61,70.60,-113.9,-5.8,184.9
2015-08-15 10:41:00,SKT,8.22,71.43,-29.61,70.50,-104.2,-12.4,217.2
2015-08-15 10:42:00,SKT,8.24,71.43,-29.61,70.40,-77.5,-9.5,247.0
2015-08-15 10:43:00,SKT,8.25,71.43,-29.61,70.30,-26.0,-17.2,270.7
2015-08-15 10:44:00,SKT,8.27,71.43,-29.61,70.19,-0.5,-50.7,246.6
2015-08-15 10:45:00,SKT,8.29,71.43,-29.61,70.09,-25.2,-59.8,284.9
2015-08-15 10:46:00,SKT,8.30,71.43,-29.61,69.99,-64.9,-27.2,322.4
2015-08-15 10:47:00,SKT,8.32,71.43,-29.61,69.89,-31.7,22.0,336.3
2015-08-15 10:48:00,SKT,8.34,71.43,-29.61,69.79,18.2,65.7,322.5
2015-08-15 10:49:00,SKT,8.35,71.43,-29.61,69.68,35.1,98.5,298.3
2015-08-15 10:50:00,SKT,8.37,71.43,-29.61,69.58,6.8,81.1,241.5
2015-08-15 10:51:00,SKT,8.38,71.43,-29.61,69.48,5.5,67.4,218.2
2015-08-15 10:52:00,SKT,8.40,71.43,-29.61,69.38,18.6,71.2,213.0
2015-08-15 10:53:00,SKT,8.42,71.43,-29.61,69.28,33.5,77.8,211.6
2015-08-15 10:54:00,SKT,8.43,71.43,-29.61,69.17,33.7,71.3,207.7
2015-08-15 10:55:00,SKT,8.45,71.43,-29.61,69.07,35.9,75.9,209.4
2015-08-15 10:56:00,SKT,8.47,71.43,-29.61,68.97,65.5,92.8,219.2
2015-08-15 10:57:00,SKT,8.48,71.43,-29.61,68.87,93.0,89.8,211.2
2015-08-15 10:58:00,SKT,8.50,71.43,-29.61,68.77,127.3,81.8,211.8
2015-08-15 10:59:00,SKT,8.52,71.43,-29.61,68.67,132.9,99.7,255.1
2015-08-15 11:00:00,SKT,8.53,71.43,-29.61,68.57,126.0,135.3,276.4
2015-08-15 11:01:00,SKT,8.55,71.43,-29.61,68.47,96.3,181.9,262.1
2015-08-15 11:02:00,SKT,8.56,71.43,-29.61,68.36,71.0,211.8,225.8
2015-08-15 11:03:00,SKT,8.58,71.43,-29.61,68.26,86.3,231.1,194.5
2015-08-15 11:04:00,SKT,8.60,71.43,-29.61,68.16,92.2,240.0,192.4
2015-08-15 11:05:00,SKT,8.61,71.43,-29.61,68.06,99.4,232.3,184.6
2015-08-15 11:06:00,SKT,8.63,71.43,-29.61,67.96,86.5,200.3,196.4
2015-08-15 11:07:00,SKT,8.65,71.43,-29.61,67.86,77.5,173.8,191.4
2015-08-15 11:08:00,SKT,8.66,71.43,-29.61,67.76,81.2,156.7,189.8
2015-08-15 11:09:00,SKT,8.68,71.43,-29.61,67.66,82.4,150.4,189.9
2015-08-15 11:10:00,SKT,8.69,71.43,-29.61,67.56,81.9,135.0,191.6
2015-08-15 11:11:00,SKT,8.71,71.43,-29.61,67.46,74.8,127.2,200.7
2015-08-15 11:12:00,SKT,8.73,71.43,-29.61,67.36,69.9,119.2,201.2
2015-08-15 11:13:00,SKT,8.74,71.43,-29.61,67.26,57.2,112.5,191.6
2015-08-15 11:14:00,SKT,8.76,71.43,-29.61,67.16,24.3,109.6,210.0
2015-08-15 11:15:00,SKT,8.77,71.43,-29.61,67.06,-15.4,93.6,227.7
2015-08-15 11:16:00,SKT,8.79,71.43,-29.61,66.96,-13.8,83.3,214.8
2015-08-15 11:17:00,SKT,8.81,71.43,-29.61,66.87,-13.3,79.4,208.6
2015-08-15 11:18:00,SKT,8.82,71.43,-29.61,66.77,-16.2,80.8,205.5
2015-08-15 11:19:00,SKT,8.84,71.43,-29.61,66.67,-20.4,92.5,214.0
2015-08-15 11:20:00,SKT,8.86,71.43,-29.61,66.57,-29.0,91.4,220.8
2015-08-15 11:21:00,SKT,8.87,71.43,-29.61,66.47,-42.5,84.3,228.3
2015-08-15 11:22:00,SKT,8.89,71.43,-29.61,66.37,-60.2,77.9,231.5
2015-08-15 11:23:00,SKT,8.90,71.43,-29.61,66.27,-68.6,74.1,232.8
2015-08-15 11:24:00,SKT,8.92,71.43,-29.61,66.18,-75.2,76.2,231.9
2015-08-15 11:25:00,SKT,8.93,71.43,-29.61,66.08,-91.0,72.7,241.3
2015-08-15 11:26:00,SKT,8.95,71.43,-29.61,65.98,-105.8,64.9,259.7
2015-08-15 11:27:00,SKT,8.97,71.43,-29.61,65.88,-119.9,54.4,258.4
2015-08-15 11:28:00,SKT,8.98,71.43,-29.61,65.78,-145.4,37.3,274.7
2015-08-15 11:29:00,SKT,9.00,71.43,-29.61,65.69,-165.7,19.8,281.8
2015-08-15 11:30:00,SKT,9.01,71.43,-29.61,65.59,-177.0,7.5,277.9
2015-08-15 11:31:00,SKT,9.03,71.43,-29.61,65.49,-189.9,4.2,271.6
2015-08-15 11:32:00,SKT,9.05,71.43,-29.61,65.40,-206.3,-9.1,263.0
2015-08-15 11:33:00,SKT,9.06,71.43,-29.61,65.30,-212.7,-14.6,258.4
2015-08-15 11:34:00,SKT,9.08,71.43,-29.61,65.20,-222.4,-29.4,247.6
2015-08-15 11:35:00,SKT,9.09,71.43,-29.61,65.11,-235.1,-26.1,242.9
2015-08-15 11:36:00,SKT,9.11,71.43,-29.61,65.01,-248.6,-35.8,243.7
2015-08-15 11:37:00,SKT,9.12,71.43,-29.61,64.91,-272.0,-40.2,253.7
2015-08-15 11:38:00,SKT,9.14,71.43,-29.61,64.82,-288.0,-48.3,255.6
2015-08-15 11:39:00,SKT,9.16,71.43,-29.61,64.72,-296.7,-64.5,245.7
2015-08-15 11:40:00,SKT,9.17,71.43,-29.61,64.63,-318.5,-69.2,240.4
2015-08-15 11:41:00,SKT,9.19,71.43,-29.61,64.53,-342.2,-56.5,249.9
2015-08-15 11:42:00,SKT,9.20,71.43,-29.61,64.43,-349.0,-49.8,242.7
2015-08-15 11:43:00,SKT,9.22,71.43,-29.61,64.34,-358.0,-54.1,233.9
2015-08-15 11:44:00,SKT,9.23,71.43,-29.61,64.24,-361.7,-64.7,218.5
2015-08-15 11:45:00,SKT,9.25,71.43,-29.61,64.15,-360.4,-62.7,203.8
2015-08-15 11:46:00,SKT,9.27,71.43,-29.61,64.06,-361.0,-59.1,199.6
2015-08-15 11:47:00,SKT,9.28,71.43,-29.61,63.96,-357.0,-48.9,197.0
2015-08-15 11:48:00,SKT,9.30,71.43,-29.61,63.87,-362.7,-34.2,201.2
2015-08-15 11:49:00,SKT,9.31,71.43,-29.61,63.77,-367.6,-16.0,206.4
2015-08-15 11:50:00,SKT,9.33,71.43,-29.61,63.68,-365.8,-6.6,199.3
2015-08-15 11:51:00,SKT,9.34,71.43,-29.61,63.59,-365.8,-8.2,192.4
2015-08-15 11:52:00,SKT,9.36,71.43,-29.61,63.49,-362.8,-8.4,185.4
2015-08-15 11:53:00,SKT,9.37,71.43,-29.61,63.40,-363.8,-6.0,188.6
2015-08-15 11:54:00,SKT,9.39,71.43,-29.61,63.31,-357.9,-1.5,188.7
2015-08-15 11:55:00,SKT,9.41,71.43,-29.61,63.21,-346.9,3.7,188.5
2015-08-15 11:56:00,SKT,9.42,71.43,-29.61,63.12,-333.8,9.9,192.4
2015-08-15 11:57:00,SKT,9.44,71.43,-29.61,63.03,-320.3,5.4,191.0
2015-08-15 11:58:00,SKT,9.45,71.43,-29.61,62.94,-312.1,0.1,194.1
2015-08-15 11:59:00,SKT,9.47,71.43,-29.61,62.84,-309.0,-1.2,205.6
2015-08-15 12:00:00,SKT,9.48,71.43,-29.61,62.75,-302.9,3.3,209.1
2015-08-15 12:01:00,SKT,9.50,71.43,-29.61,62.66,-302.1,8.4,221.2
2015-08-15 12:02:00,SKT,9.51,71.43,-29.61,62.57,-293.9,6.2,219.0
2015-08-15 12:03:00,SKT,9.53,71.43,-29.61,62.48,-280.4,11.9,218.2
2015-08-15 12:04:00,SKT,9.54,71.43,-29.61,62.39,-278.5,11.8,223.2
2015-08-15 12:05:00,SKT,9.56,71.43,-29.61,62.30,-264.1,13.9,211.8
2015-08-15 12:06:00,SKT,9.58,71.43,-29.61,62.21,-247.8,28.2,200.8
2015-08-15 12:07:00,SKT,9.59,71.43,-29.61,62.12,-233.8,40.9,201.0
2015-08-15 12:08:00,SKT,9.61,71.43,-29.61,62.03,-219.6,53.4,207.9
2015-08-15 12:09:00,SKT,9.62,71.43,-29.61,61.94,-226.6,32.8,230.8
2015-08-15 12:10:00,SKT,9.64,71.43,-29.61,61.85,-227.1,6.2,240.1
2015-08-15 12:11:00,SKT,9.65,71.43,-29.61,61.76,-215.4,4.8,235.6
2015-08-15 12:12:00,SKT,9.67,71.43,-29.61,61.67,-191.3,17.8,223.9
2015-08-15 12:13:00,SKT,9.68,71.43,-29.61,61.58,-169.3,35.2,218.5
2015-08-15 12:14:00,SKT,9.70,71.43,-29.61,61.49,-147.4,50.2,216.2
2015-08-15 12:15:00,SKT,9.71,71.43,-29.61,61.40,-139.7,61.1,232.6
2015-08-15 12:16:00,SKT,9.73,71.43,-29.61,61.31,-139.9,72.5,270.7
2015-08-15 12:17:00,SKT,9.74,71.43,-29.61,61.23,-121.0,74.8,290.9
2015-08-15 12:18:00,SKT,9.76,71.43,-29.61,61.14,-98.4,70.1,306.4
2015-08-15 12:19:00,SKT,9.77,71.43,-29.61,61.05,-83.4,91.8,331.7
2015-08-15 12:20:00,SKT,9.79,71.43,-29.61,60.96,-73.6,103.9,335.1
2015-08-15 12:21:00,SKT,9.80,71.43,-29.61,60.88,-58.3,114.6,319.4
2015-08-15 12:22:00,SKT,9.82,71.43,-29.61,60.79,-47.0,104.4,289.1
2015-08-15 12:23:00,SKT,9.83,71.43,-29.61,60.71,-33.7,100.6,285.3
2015-08-15 12:24:00,SKT,9.85,71.43,-29.61,60.62,-30.3,80.6,301.8
2015-08-15 12:25:00,SKT,9.86,71.43,-29.61,60.53,-66.7,61.8,350.2
2015-08-15 12:26:00,SKT,9.88,71.43,-29.61,60.45,-117.9,43.7,415.8
2015-08-15 12:27:00,SKT,9.89,71.43,-29.61,60.36,-181.7,25.4,460.4
2015-08-15 12:28:00,SKT,9.91,71.43,-29.61,60.28,-240.6,-34.9,465.1
2015-08-15 12:29:00,SKT,9.92,71.43,-29.61,60.19,-284.1,-89.7,447.1
2015-08-15 12:30:00,SKT,9.94,71.43,-29.61,60.11,-320.1,-142.4,396.3
2015-08-15 12:31:00,SKT,9.95,71.43,-29.61,60.02,-332.3,-123.8,336.0
2015-08-15 12:32:00,SKT,9.97,71.43,-29.61,59.94,-341.8,-103.6,323.7
2015-08-15 12:33:00,SKT,9.98,71.43,-29.61,59.86,-344.1,-123.6,307.7
2015-08-15 12:34:00,SKT,10.00,71.43,-29.61,59.77,-345.4,-114.8,284.3
2015-08-15 12:35:00,SKT,10.01,71.43,-29.61,59.69,-325.6,-94.6,252.2
2015-08-15 12:36:00,SKT,10.03,71.43,-29.61,59.61,-295.5,-78.1,221.1
2015-08-15 12:37:00,SKT,10.04,71.43,-29.61,59.53,-257.0,-78.8,198.5
2015-08-15 12:38:00,SKT,10.06,71.43,-29.61,59.44,-238.4,-59.8,204.3
2015-08-15 12:39:00,SKT,10.07,71.43,-29.61,59.36,-231.3,-59.9,207.4
2015-08-15 12:40:00,SKT,10.09,71.43,-29.61,59.28,-229.2,-54.0,201.1
2015-08-15 12:41:00,SKT,10.10,71.43,-29.61,59.20,-247.0,-46.2,213.6
2015-08-15 12:42:00,SKT,10.12,71.43,-29.61,59.12,-249.3,-41.7,209.5
2015-08-15 12:43:00,SKT,10.13,71.43,-29.61,59.04,-233.2,-43.3,196.1
2015-08-15 12:44:00,SKT,10.15,71.43,-29.61,58.96,-211.8,-28.3,181.6
2015-08-15 12:45:00,SKT,10.16,71.43,-29.61,58.88,-200.8,-24.5,165.6
2015-08-15 12:46:00,SKT,10.18,71.43,-29.61,58.80,-197.7,-15.8,148.9
2015-08-15 12:47:00,SKT,10.19,71.43,-29.61,58.72,-183.6,-1.5,113.0
2015-08-15 12:48:00,SKT,10.20,71.43,-29.61,58.64,-172.6,12.1,85.8
2015-08-15 12:49:00,SKT,10.22,71.43,-29.61,58.56,-149.9,23.4,84.0
2015-08-15 12:50:00,SKT,10.23,71.43,-29.61,58.48,-110.0,38.9,73.4
2015-08-15 12:51:00,SKT,10.25,71.43,-29.61,58.40,-69.0,65.4,92.3
2015-08-15 12:52:00,SKT,10.26,71.43,-29.61,58.33,-19.8,90.4,91.5
2015-08-15 12:53:00,SKT,10.28,71.43,-29.61,58.25,18.3,91.1,50.0
2015-08-15 12:54:00,SKT,10.29,71.43,-29.61,58.17,52.9,79.9,20.3
2015-08-15 12:55:00,SKT,10.31,71.43,-29.61,58.09,75.3,59.5,7.6
2015-08-15 12:56:00,SKT,10.32,71.43,-29.61,58.02,111.4,-5.0,31.7
2015-08-15 12:57:00,SKT,10.34,71.43,-29.61,57.94,136.7,-7.9,166.2
2015-08-15 12:58:00,SKT,10.35,71.43,-29.61,57.87,128.5,28.4,193.6
2015-08-15 12:59:00,SKT,10.37,71.43,-29.61,57.79,122.1,45.8,186.2
2015-08-15 13:00:00,SKT,10.38,71.43,-29.61,57.72,122.9,45.2,187.9
